Change the Weather History Date:

Wednesday, September 3, 2014

  Actual Average Record
Temperature  
Mean Temperature 77 °F 70 °F  
Max Temperature 85 °F 81 °F 102 °F (1953)
Min Temperature 68 °F 58 °F 42 °F (1967)
Degree Days  
Heating Degree Days 0 1  
Month to date heating degree days 0 3  
Since 1 July heating degree days 3 10  
Cooling Degree Days 12 5  
Month to date cooling degree days 44 17  
Year to date cooling degree days 872 809  
Growing Degree Days 27 (Base 50)    
Moisture  
Dew Point 63 °F    
Average Humidity 64    
Maximum Humidity 84    
Minimum Humidity 44    
Precipitation  
Precipitation 0.00 in 0.12 in 2.36 in (1993)
Month to date precipitation 0.24 0.35  
Year to date precipitation 24.71 26.59  
Sea Level Pressure  
Sea Level Pressure 30.05 in    
Wind  
Wind Speed 3 mph (NNE)    
Max Wind Speed 10 mph    
Max Gust Speed 15 mph    
Visibility 10 miles    
Events      
T = Trace of Precipitation, MM = Missing Value Source: NWS Daily Summary

Daily Weather History Graph

Daily Weather History Graph

Search for Another Location

Airport or City:

Trip Planner

Search our weather history database for the weather conditions in past years. The results will help you decide how hot, cold, wet, or windy it might be!

Date:

Astronomy

Sep. 03, 2014 Rise Set
Actual Time 6:42 AM EDT 7:39 PM EDT
Civil Twilight 6:14 AM EDT 8:07 PM EDT
Nautical Twilight 5:42 AM EDT 8:39 PM EDT
Astronomical Twilight 5:08 AM EDT 9:13 PM EDT
Moon 3:18 PM EDT (9/3) 12:35 AM EDT (9/3)
Length of Visible Light 13h 52m
Length of Day
12h 57m
Waxing Gibbous, 63% of the Moon is Illuminated
Sep 3
Waxing Gibbous
Sep 8
Full
Sep 15
Last Quarter
Sep 24
New
Oct 1
First Quarter

Hourly Weather History & Observations

Time (EDT) Temp. Heat Index Dew Point Humidity Pressure Visibility Wind Dir Wind Speed Gust Speed Precip Events Conditions
12:53 AM 78.1 °F - 63.0 °F 60% 29.94 in 10.0 mi WNW 5.8 mph - N/A   Partly Cloudy
1:53 AM 75.9 °F - 64.0 °F 67% 29.95 in 10.0 mi NNE 3.5 mph - N/A   Clear
2:53 AM 72.0 °F - 66.0 °F 81% 29.95 in 10.0 mi West 3.5 mph - N/A   Partly Cloudy
3:53 AM 72.0 °F - 64.0 °F 76% 29.95 in 10.0 mi Calm Calm - N/A   Clear
4:53 AM 71.1 °F - 64.0 °F 78% 29.95 in 10.0 mi NW 5.8 mph - N/A   Clear
5:53 AM 75.0 °F - 62.1 °F 64% 29.96 in 10.0 mi NNW 6.9 mph - N/A   Clear
6:53 AM 73.9 °F - 62.1 °F 66% 30.00 in 10.0 mi Calm Calm - N/A   Clear
7:53 AM 73.9 °F - 64.0 °F 71% 30.04 in 10.0 mi Calm Calm - N/A   Clear
8:53 AM 75.9 °F - 63.0 °F 64% 30.06 in 10.0 mi NW 4.6 mph - N/A   Clear
9:53 AM 78.1 °F - 64.0 °F 62% 30.08 in 10.0 mi NNE 4.6 mph - N/A   Partly Cloudy
10:53 AM 79.0 °F - 63.0 °F 58% 30.09 in 10.0 mi NNE 3.5 mph - N/A   Scattered Clouds
11:53 AM 82.0 °F 83.1 °F 63.0 °F 52% 30.09 in 10.0 mi NNE 5.8 mph - N/A   Scattered Clouds
12:53 PM 82.0 °F 82.4 °F 60.1 °F 47% 30.08 in 10.0 mi Calm Calm - N/A   Partly Cloudy
1:53 PM 82.9 °F 83.3 °F 61.0 °F 47% 30.07 in 10.0 mi Calm Calm - N/A   Clear
2:53 PM 84.0 °F 84.0 °F 60.1 °F 44% 30.07 in 10.0 mi ENE 4.6 mph - N/A   Partly Cloudy
3:53 PM 84.0 °F 84.4 °F 61.0 °F 46% 30.06 in 10.0 mi NE 5.8 mph - N/A   Clear
4:53 PM 84.0 °F 84.4 °F 61.0 °F 46% 30.06 in 10.0 mi Variable 4.6 mph - N/A   Clear
5:53 PM 82.0 °F 82.7 °F 61.0 °F 49% 30.06 in 10.0 mi ESE 4.6 mph - N/A   Clear
6:53 PM 80.1 °F 81.1 °F 61.0 °F 52% 30.08 in 10.0 mi East 3.5 mph - N/A   Clear
7:53 PM 73.9 °F - 63.0 °F 68% 30.08 in 10.0 mi Calm Calm - N/A   Clear
8:53 PM 72.0 °F - 63.0 °F 73% 30.10 in 10.0 mi Calm Calm - N/A   Clear
9:53 PM 72.0 °F - 63.0 °F 73% 30.12 in 10.0 mi SSE 3.5 mph - N/A   Clear
10:53 PM 70.0 °F - 63.0 °F 78% 30.14 in 10.0 mi Calm Calm - N/A   Clear
11:53 PM 69.1 °F - 63.0 °F 81% 30.14 in 9.0 mi Calm Calm - N/A   Partly Cloudy